Columbus, MS

1:41 AM CDT on July 29, 2016 (GMT -0500)
Columbus Air Force Base

Weather History for KCBM - April, 2013

Change the Weather History Date:

Monday, April 22, 2013

  Actual Average Record
Temperature  
Mean Temperature 61 °F -  
Max Temperature 76 °F 72 °F 84 °F (2008)
Min Temperature 46 °F 52 °F 41 °F (2009)
Degree Days  
Heating Degree Days 4    
Growing Degree Days 11 (Base 50)    
Moisture  
Dew Point 49 °F    
Average Humidity 69    
Maximum Humidity 96    
Minimum Humidity 40    
Precipitation  
Precipitation 0.00 in - - ()
Sea Level Pressure  
Sea Level Pressure 30.16 in    
Wind  
Wind Speed 3 mph (SE)    
Max Wind Speed 14 mph    
Max Gust Speed -    
Visibility 10 miles    
Events      
Averages and records for this station are not official NWS values.
T = Trace of Precipitation, MM = Missing Value Source: NWS Daily Summary

Daily Weather History Graph

Daily Weather History Graph

Search for Another Location

Airport or City:

Trip Planner

Search our weather history database for the weather conditions in past years. The results will help you decide how hot, cold, wet, or windy it might be!

Date:

Astronomy

Apr. 22, 2013 Rise Set
Actual Time 6:14 AM CDT 7:30 PM CDT
Civil Twilight 5:48 AM CDT 7:56 PM CDT
Nautical Twilight 5:17 AM CDT 8:27 PM CDT
Astronomical Twilight 4:45 AM CDT 8:59 PM CDT
Moon 4:27 PM CDT (4/22) 3:59 AM CDT (4/22)
Length of Visible Light 14h 07m
Length of Day
13h 15m
Waxing Gibbous, 88% of the Moon is Illuminated
Apr 22
Waxing Gibbous
Apr 25
Full
May 2
Last Quarter
May 9
New
May 17
First Quarter

Hourly Weather History & Observations

Time (CDT) Temp. Dew Point Humidity Pressure Visibility Wind Dir Wind Speed Gust Speed Precip Events Conditions
12:58 AM 49.1 °F 45.7 °F 88% 30.19 in 10.0 mi Calm Calm - N/A   Clear
1:58 AM 47.1 °F 45.3 °F 93% 30.20 in 10.0 mi Calm Calm - N/A   Clear
2:58 AM 48.2 °F 46.4 °F 93% 30.20 in 10.0 mi Calm Calm - N/A   Clear
3:58 AM 47.5 °F 46.4 °F 96% 30.20 in 10.0 mi Calm Calm - N/A   Clear
4:58 AM 46.9 °F 45.9 °F 96% 30.20 in 10.0 mi Calm Calm - N/A   Clear
5:58 AM 47.3 °F 45.3 °F 93% 30.21 in 10.0 mi Calm Calm - N/A   Clear
6:58 AM 47.8 °F 44.1 °F 87% 30.22 in 10.0 mi Calm Calm - N/A   Clear
7:58 AM 55.8 °F 45.7 °F 69% 30.23 in 10.0 mi ESE 8.1 mph - N/A   Clear
8:58 AM 60.4 °F 46.4 °F 60% 30.23 in 10.0 mi ESE 13.8 mph - N/A   Clear
9:58 AM 64.9 °F 48.4 °F 55% 30.24 in 10.0 mi ESE 11.5 mph - N/A   Partly Cloudy
10:58 AM 68.2 °F 49.8 °F 52% 30.24 in 10.0 mi SE 9.2 mph - N/A   Clear
11:58 AM 70.3 °F 50.7 °F 50% 30.21 in 10.0 mi SE 6.9 mph - N/A   Clear
12:58 PM 71.2 °F 50.2 °F 47% 30.17 in 10.0 mi ENE 1.2 mph - N/A   Scattered Clouds
1:58 PM 74.1 °F 48.9 °F 41% 30.16 in 10.0 mi SSE 5.8 mph - N/A   Partly Cloudy
2:58 PM 75.9 °F 50.2 °F 40% 30.14 in 10.0 mi SE 4.6 mph - N/A   Scattered Clouds
3:58 PM 75.7 °F 50.9 °F 42% 30.10 in 10.0 mi South 9.2 mph - N/A   Partly Cloudy
4:58 PM 76.1 °F 51.4 °F 42% 30.09 in 10.0 mi SE 6.9 mph - N/A   Scattered Clouds
5:58 PM 73.8 °F 49.8 °F 43% 30.08 in 10.0 mi SE 2.3 mph - N/A   Clear
6:58 PM 70.3 °F 51.6 °F 51% 30.08 in 10.0 mi SE 5.8 mph - N/A   Clear
7:58 PM 62.4 °F 52.5 °F 70% 30.08 in 10.0 mi SSE 4.6 mph - N/A   Clear
8:58 PM 59.0 °F 52.3 °F 79% 30.09 in 10.0 mi Calm Calm - N/A   Clear
9:58 PM 58.3 °F 53.4 °F 84% 30.10 in 10.0 mi SE 8.1 mph - N/A   Clear
10:58 PM 57.6 °F 53.6 °F 87% 30.10 in 10.0 mi North 1.2 mph - N/A   Clear
11:59 PM 56.8 °F 54.1 °F 91% 30.11 in 10.0 mi Calm Calm - N/A   Clear